Wind_Speed
26 24 24 26 26 26 27 27 26 25 24 24 23 22 20 20 19 19 19 18 18 18 17 17 17 17 16 15 14 14 13 13 14 14 15 15 16 16 16 16 16 16 17 17
28 25 24 25 26 27 27 27 27 26 26 25 24 25 23 21 21 21 21 20 20 20 20 19 19 18 17 17 16 16 15 15 15 15 16 16 17 17 17 17 17 17 18 18
28 26 26 27 27 26 26 26 28 29 29 27 28 26 23 23 23 23 23 22 21 21 21 20 20 20 18 18 17 16 16 17 17 18 18 18 18 18 19 19 19 20 20 20
28 27 29 27 26 26 27 28 29 29 29 27 27 25 25 25 24 23 23 23 22 22 22 21 21 21 21 20 19 18 18 19 19 19 19 20 19 20 21 22 22 22 22 22
27 27 27 25 27 27 26 27 28 29 28 29 29 28 27 26 25 24 24 24 24 24 23 22 22 22 21 21 20 20 20 20 20 20 21 21 22 22 22 23 23 23 23 23
28 27 26 26 27 26 27 28 29 29 29 28 27 27 26 26 26 26 26 26 26 25 24 23 22 22 22 21 22 22 22 22 22 22 23 23 24 25 25 25 25 24 24 24
28 28 27 26 27 27 28 28 29 29 29 28 27 27 27 26 26 26 26 25 25 24 23 23 22 22 22 22 23 23 24 24 24 25 25 25 26 26 27 26 26 25 25 25
29 29 29 28 27 28 27 27 29 30 30 29 28 28 27 26 26 26 26 25 24 24 24 23 23 23 23 24 25 25 26 25 26 27 28 28 28 28 27 27 27 26 26 26
30 31 32 30 30 29 29 29 28 28 29 29 28 28 28 27 26 26 26 25 25 26 25 24 24 25 26 26 27 27 27 27 27 28 29 29 29 28 28 28 28 27 27 27
30 31 31 30 28 29 29 28 28 28 28 29 28 27 27 27 27 27 26 26 26 26 27 27 27 27 27 27 27 27 27 28 28 29 29 29 30 29 29 29 29 28 28 28
29 29 29 30 29 28 28 28 28 28 28 28 28 28 28 28 28 27 28 27 27 27 28 28 29 29 28 28 28 28 28 29 28 29 30 30 30 31 31 30 29 30 30 29
27 27 26 27 27 28 28 27 28 28 28 29 29 29 29 29 29 29 29 28 28 29 30 30 30 30 30 29 29 29 29 29 30 30 31 30 31 31 31 31 31 31 31 31
26 26 27 26 26 27 28 28 28 28 28 28 29 30 29 29 29 29 29 29 30 30 31 31 31 31 31 30 30 30 31 30 30 30 30 31 32 32 32 33 33 34 34 33
26 26 27 27 26 28 29 30 30 30 29 29 30 30 30 30 29 30 30 30 31 32 32 32 31 31 31 31 31 31 31 31 31 31 32 32 33 33 34 35 35 35 35 35
25 25 27 28 29 29 29 29 30 30 30 30 29 30 30 30 30 31 31 31 31 31 32 31 31 30 31 32 32 32 31 32 32 32 32 33 33 34 35 36 36 35 34 34
25 26 26 27 27 27 28 29 30 30 30 30 29 29 30 30 30 30 30 31 31 31 31 32 32 31 32 32 33 33 33 33 33 33 34 34 35 36 36 36 35 34 33 34
23 24 26 27 27 27 27 28 28 29 29 29 29 30 31 30 30 30 31 31 31 31 32 32 32 32 32 32 33 33 33 33 33 34 34 35 35 36 36 36 35 34 34 33
23 23 23 24 24 25 26 27 27 28 29 29 29 29 30 30 30 31 31 31 31 31 32 32 33 33 32 32 32 32 32 33 34 34 34 34 35 36 36 36 35 34 34 34
21 22 22 22 22 24 25 26 26 26 27 28 29 29 30 30 30 30 31 31 32 33 33 33 33 33 32 33 33 33 33 33 32 32 32 33 34 35 36 36 36 36 35 34
20 20 21 21 22 23 23 23 24 26 27 27 28 29 30 30 30 31 31 31 31 32 33 33 33 33 33 33 34 34 33 33 33 33 34 34 35 35 36 36 36 36 35 35
18 19 20 21 21 22 22 22 23 24 24 26 27 28 28 29 30 31 31 31 32 32 32 32 32 32 33 33 33 33 33 33 34 34 34 35 35 35 36 36 35 35 35 35
17 18 18 19 20 21 21 22 23 24 24 25 26 27 28 29 29 29 30 30 30 31 31 32 32 33 33 32 32 33 33 34 35 35 35 34 34 34 34 33 33 34 34 34
16 17 18 18 19 19 20 21 22 23 24 24 25 25 26 27 27 27 27 28 28 28 29 30 30 30 30 31 32 33 33 33 33 33 34 34 33 33 32 32 32 32 33 33
16 16 17 17 18 18 19 20 21 22 23 24 24 24 24 25 26 27 27 27 26 26 27 27 28 29 30 31 32 32 32 32 32 32 32 32 32 32 32 31 31 31 32 33
14 15 16 17 17 17 18 19 20 21 22 22 23 23 24 24 24 24 25 25 25 26 26 26 27 29 30 31 31 32 32 32 32 32 32 31 31 31 32 32 32 32 32 32
14 15 16 17 17 18 18 19 19 20 20 21 21 22 22 22 22 23 23 24 24 25 26 27 28 29 29 30 31 31 32 32 33 33 33 32 32 32 32 31 31 32 32 32
14 15 15 16 17 18 18 18 18 18 18 19 20 21 21 22 22 22 22 23 24 25 26 27 28 29 30 30 31 31 32 32 32 32 32 32 31 31 30 30 31 31 31 31
Wind_Direction
221 222 228 234 232 232 232 230 234 237 243 249 252 259 258 259 259 262 265 265 267 269 274 276 280 285 287 291 292 295 296 298 301 301 302 303 303 307 309 310 310 311 311 312
222 224 226 231 232 231 233 232 234 237 239 243 252 258 253 253 257 259 262 265 266 269 271 274 276 279 283 284 287 290 291 293 296 297 299 301 302 304 305 307 306 307 309 310
225 226 231 232 234 234 235 234 234 235 240 242 250 252 252 254 257 258 260 265 266 268 271 271 272 274 276 279 283 287 288 289 291 293 295 297 298 299 302 303 302 302 304 306
225 227 234 233 233 235 237 236 236 237 239 242 248 249 252 254 255 258 258 259 263 267 269 271 273 274 275 277 280 283 285 286 289 292 293 294 296 297 299 301 301 301 302 305
226 231 235 233 231 231 233 236 236 236 237 241 245 246 250 254 257 257 258 259 262 266 269 272 272 273 275 277 279 281 282 285 287 290 292 293 294 296 297 299 300 301 301 302
225 230 231 232 233 234 237 240 237 237 238 241 243 243 249 255 258 259 259 261 263 266 268 270 270 272 274 275 276 278 280 282 284 286 290 292 293 294 296 298 299 300 300 300
225 230 232 234 232 232 234 238 237 237 238 240 243 247 251 256 258 259 260 262 263 264 266 268 267 267 271 273 274 276 278 280 281 283 286 288 289 291 293 295 297 298 298 298
226 229 234 237 235 232 233 235 236 237 238 240 244 248 253 256 258 258 260 260 261 263 265 265 266 267 271 274 276 278 279 279 280 282 284 285 287 289 290 292 294 295 295 295
230 232 236 238 237 236 233 234 235 237 237 242 245 249 252 255 256 257 256 258 260 262 263 265 268 271 273 276 277 277 278 279 279 282 283 283 285 287 289 290 291 291 292 293
227 230 234 237 237 238 236 237 238 237 239 243 246 248 250 253 253 255 257 259 260 262 265 266 269 272 274 275 275 276 277 278 278 280 282 283 284 285 287 289 290 291 291 292
228 231 235 237 237 239 241 239 237 239 243 247 249 250 250 252 253 255 256 258 260 262 265 268 269 271 272 272 274 275 276 278 279 280 280 282 283 283 284 287 289 291 291 291
230 235 237 237 237 239 241 242 244 246 247 249 251 253 252 253 254 255 256 258 260 263 266 269 269 270 270 271 272 275 277 279 280 281 281 281 282 283 284 286 287 289 290 290
234 235 239 242 241 241 243 244 246 248 249 250 252 254 254 255 256 256 257 258 261 264 267 268 268 268 268 269 271 274 275 278 280 281 281 281 282 282 284 285 286 288 288 288
236 238 241 243 244 244 246 247 248 251 252 254 255 253 255 257 258 258 259 261 263 264 267 268 267 267 268 269 270 272 274 277 279 280 281 281 282 283 285 286 287 287 285 286
238 241 243 246 248 249 249 250 251 252 252 254 254 253 255 257 258 259 260 262 264 265 266 267 268 269 269 269 270 271 272 275 277 278 279 280 281 283 285 286 286 287 286 287
242 243 246 250 253 254 253 251 251 252 253 255 256 256 257 258 258 259 262 263 264 265 266 267 269 270 270 271 271 271 271 274 275 276 278 278 280 282 284 284 285 286 286 287
246 248 251 252 253 253 253 252 252 253 253 254 254 256 257 258 259 260 262 265 266 267 267 268 270 272 273 273 272 271 273 275 274 275 278 277 278 280 282 283 284 283 284 285
248 251 253 253 253 253 253 253 253 253 253 253 254 255 257 260 260 262 263 265 266 267 267 269 271 272 273 274 274 274 276 278 278 278 278 277 278 280 280 280 281 282 282 283
249 252 253 254 255 254 253 252 253 253 253 253 254 256 258 260 260 262 263 266 267 266 268 269 269 270 270 271 273 275 277 278 279 281 281 280 279 280 280 279 279 281 282 283
251 252 253 254 255 254 253 253 255 257 257 257 257 259 260 262 263 265 266 267 268 269 270 270 269 269 271 273 274 275 276 279 280 281 281 280 279 281 281 280 279 281 284 285
250 252 254 254 254 254 254 255 257 261 262 261 260 261 263 264 266 268 270 270 271 271 272 272 272 272 273 273 274 275 277 279 280 280 280 280 280 282 284 283 282 282 284 284
255 257 258 257 255 255 256 258 260 262 265 266 266 266 267 267 268 270 272 273 273 273 273 273 274 275 275 275 276 276 277 277 279 280 282 283 282 282 284 285 285 284 286 286
259 261 264 262 260 259 260 261 263 265 267 268 269 270 270 270 271 272 273 274 274 275 275 275 275 276 277 278 279 279 281 281 282 283 284 285 285 285 285 286 286 285 285 286
260 264 266 265 264 264 263 264 265 267 268 269 269 269 270 272 273 273 274 275 277 276 276 276 276 277 279 281 281 281 282 282 283 284 285 286 286 285 284 284 285 286 286 285
268 270 271 272 271 270 271 271 272 271 271 270 270 271 274 275 276 276 276 275 276 278 281 282 282 281 281 281 281 282 283 283 284 285 286 285 285 285 285 284 285 286 286 286
277 275 273 272 273 274 275 275 275 274 274 273 273 274 274 275 276 277 277 278 278 280 282 284 284 284 284 282 282 283 284 284 285 285 286 286 286 285 285 285 285 286 286 287
277 277 278 279 279 278 277 279 281 280 277 276 278 278 279 278 278 279 281 283 283 284 284 284 285 286 287 285 284 283 284 285 285 285 286 286 285 285 286 286 286 286 286 288
Height
5849 5853 5858 5860 5863 5865 5868 5871 5875 5877 5879 5881 5882 5883 5884 5885 5885 5887 5888 5888 5888 5889 5889 5889 5889 5888 5888 5887 5887 5887 5886 5886 5885 5884 5883 5882 5881 5880 5879 5877 5876 5875 5873 5871
5842 5847 5850 5853 5856 5859 5862 5865 5869 5871 5873 5875 5876 5877 5878 5880 5881 5882 5883 5884 5884 5884 5884 5885 5885 5884 5884 5884 5884 5883 5883 5882 5882 5881 5880 5879 5878 5877 5875 5874 5872 5871 5869 5867
5836 5840 5842 5845 5850 5853 5855 5858 5861 5864 5867 5869 5870 5871 5872 5874 5876 5877 5878 5879 5879 5880 5879 5880 5880 5880 5880 5880 5880 5879 5879 5878 5878 5877 5876 5875 5874 5873 5871 5870 5868 5867 5865 5863
5829 5834 5835 5841 5843 5846 5848 5851 5853 5857 5859 5862 5863 5864 5867 5868 5869 5872 5872 5873 5873 5874 5874 5874 5875 5875 5875 5875 5875 5875 5874 5874 5873 5872 5871 5870 5869 5868 5867 5865 5864 5862 5860 5858
5823 5826 5828 5833 5835 5838 5840 5843 5846 5849 5852 5854 5857 5859 5860 5861 5863 5864 5866 5867 5868 5868 5869 5869 5869 5869 5870 5870 5870 5870 5869 5869 5868 5867 5866 5865 5864 5863 5861 5860 5858 5856 5855 5852
5816 5819 5821 5825 5828 5830 5834 5834 5838 5841 5845 5847 5850 5853 5854 5855 5856 5858 5859 5861 5862 5862 5863 5863 5863 5864 5864 5864 5864 5864 5864 5863 5863 5862 5861 5859 5858 5857 5855 5854 5852 5850 5848 5846
5809 5812 5813 5816 5819 5823 5827 5828 5831 5834 5837 5840 5842 5846 5848 5849 5850 5851 5853 5854 5855 5856 5857 5857 5857 5858 5858 5858 5858 5858 5857 5857 5856 5855 5854 5853 5852 5850 5849 5847 5845 5843 5842 5840
5802 5805 5809 5809 5812 5815 5816 5820 5823 5827 5830 5833 5836 5838 5840 5842 5844 5845 5846 5847 5848 5849 5850 5851 5851 5851 5852 5851 5851 5851 5850 5849 5849 5848 5847 5846 5845 5843 5841 5840 5838 5836 5835 5833
5796 5799 5799 5801 5803 5807 5810 5813 5815 5819 5824 5827 5829 5831 5834 5835 5837 5838 5839 5840 5841 5842 5843 5844 5844 5845 5845 5844 5844 5843 5842 5842 5841 5840 5839 5838 5837 5835 5834 5832 5831 5829 5828 5826
5787 5790 5792 5794 5797 5800 5803 5805 5808 5812 5817 5820 5823 5825 5827 5828 5830 5831 5833 5834 5834 5835 5836 5837 5837 5837 5837 5837 5836 5835 5835 5834 5833 5833 5832 5830 5829 5828 5826 5825 5823 5821 5820 5819
5780 5783 5785 5788 5791 5794 5796 5799 5803 5807 5810 5813 5816 5818 5820 5821 5822 5824 5825 5826 5827 5828 5829 5829 5829 5829 5829 5829 5828 5827 5827 5826 5825 5824 5823 5822 5821 5819 5818 5817 5815 5814 5812 5810
5775 5777 5780 5783 5785 5788 5790 5794 5797 5800 5803 5806 5808 5810 5812 5814 5815 5816 5818 5819 5820 5820 5821 5821 5821 5821 5820 5820 5820 5820 5819 5818 5817 5816 5814 5813 5812 5811 5810 5808 5807 5805 5804 5802
5769 5772 5776 5777 5780 5782 5785 5788 5791 5793 5796 5798 5801 5802 5804 5806 5807 5808 5810 5811 5811 5812 5812 5812 5812 5812 5811 5811 5811 5811 5810 5809 5808 5807 5806 5805 5804 5802 5801 5800 5798 5797 5795 5793
5765 5768 5770 5772 5774 5777 5779 5781 5784 5786 5788 5790 5792 5794 5796 5797 5799 5800 5801 5802 5803 5803 5803 5803 5803 5803 5803 5802 5802 5802 5801 5800 5799 5798 5797 5796 5795 5793 5792 5791 5789 5787 5785 5783
5760 5762 5764 5766 5768 5770 5772 5774 5776 5778 5780 5782 5784 5786 5787 5789 5790 5791 5792 5793 5794 5794 5794 5794 5794 5794 5794 5793 5793 5792 5792 5791 5790 5789 5788 5787 5785 5784 5782 5781 5779 5777 5776 5774
5754 5756 5757 5759 5761 5763 5764 5766 5768 5770 5772 5774 5776 5777 5778 5780 5781 5783 5783 5784 5785 5785 5785 5785 5785 5785 5784 5784 5783 5783 5782 5781 5780 5780 5779 5778 5776 5774 5772 5771 5769 5768 5766 5764
5749 5750 5752 5753 5754 5756 5757 5758 5760 5762 5764 5765 5767 5769 5770 5771 5773 5774 5774 5775 5775 5776 5776 5776 5776 5776 5776 5775 5774 5773 5772 5771 5770 5769 5768 5768 5766 5764 5763 5761 5759 5758 5756 5754
5743 5744 5745 5746 5747 5748 5750 5751 5753 5754 5756 5757 5759 5760 5762 5763 5764 5765 5765 5766 5766 5767 5767 5767 5767 5767 5767 5766 5765 5764 5763 5762 5761 5760 5758 5757 5756 5754 5753 5751 5750 5748 5747 5745
5738 5739 5740 5741 5741 5742 5743 5744 5746 5747 5749 5750 5751 5753 5754 5755 5756 5756 5757 5758 5758 5758 5758 5758 5758 5758 5757 5757 5756 5755 5753 5752 5751 5749 5749 5747 5746 5744 5743 5741 5739 5738 5737 5735
5733 5734 5735 5735 5736 5737 5737 5738 5740 5741 5742 5743 5744 5745 5746 5747 5748 5748 5748 5749 5749 5749 5749 5748 5748 5748 5747 5747 5746 5744 5743 5742 5741 5740 5739 5737 5736 5734 5732 5731 5729 5727 5726 5725
5728 5729 5729 5729 5731 5731 5732 5733 5734 5735 5736 5736 5737 5738 5738 5739 5739 5740 5740 5740 5740 5740 5739 5739 5739 5738 5738 5737 5736 5734 5733 5732 5731 5730 5728 5727 5725 5724 5722 5720 5718 5717 5716 5714
5723 5724 5723 5724 5725 5726 5727 5728 5728 5729 5730 5730 5730 5731 5731 5731 5731 5732 5732 5732 5731 5731 5730 5730 5729 5729 5728 5727 5726 5725 5724 5723 5722 5720 5719 5717 5715 5714 5712 5710 5708 5707 5705 5704
5719 5719 5719 5719 5720 5721 5721 5722 5722 5723 5723 5724 5724 5724 5724 5724 5723 5724 5724 5723 5722 5721 5721 5720 5720 5719 5718 5717 5716 5715 5714 5713 5711 5710 5708 5707 5705 5703 5701 5700 5698 5697 5695 5693
5715 5715 5715 5715 5715 5715 5716 5716 5716 5717 5717 5717 5717 5717 5717 5716 5716 5716 5716 5715 5714 5713 5712 5712 5710 5709 5708 5707 5706 5705 5704 5702 5701 5700 5698 5696 5695 5693 5691 5689 5688 5687 5685 5683
5711 5711 5711 5710 5710 5710 5710 5710 5710 5710 5710 5710 5710 5710 5710 5709 5709 5708 5707 5707 5706 5705 5704 5703 5702 5700 5699 5698 5696 5695 5694 5692 5691 5689 5687 5686 5684 5682 5681 5679 5678 5676 5675 5673
5707 5707 5706 5706 5706 5706 5705 5705 5705 5705 5704 5704 5704 5703 5703 5703 5702 5701 5700 5699 5698 5697 5696 5695 5693 5692 5690 5688 5687 5685 5684 5682 5681 5679 5677 5675 5674 5672 5671 5669 5668 5666 5665 5663
5703 5702 5702 5702 5701 5701 5700 5700 5699 5699 5698 5698 5697 5697 5697 5696 5695 5694 5693 5692 5690 5689 5688 5686 5685 5683 5681 5680 5678 5676 5674 5673 5671 5669 5667 5665 5663 5662 5661 5659 5658 5656 5655 5653